| time (UTC) | temp F | wind direction | speed knots | gust knots | rain 1hr in | rain 24hr in | rain mn in | humidity % | barometer mb |
| 20260904051033 | 55 | 282 | 0.0 | 0.0 | 0.00 | 0.10 | 0.10 | 7 | 1009.4 |
| 20260904050531 | 55 | 214 | 0.0 | 0.0 | 0.00 | 0.10 | 0.10 | 7 | 1009.4 |
| 20260904050032 | 55 | 214 | 0.0 | 0.0 | 0.00 | 0.10 | 0.10 | 7 | 1009.4 |
| 20260904045528 | 55 | 214 | 0.0 | 0.0 | 0.00 | 0.10 | 0.10 | 6 | 1009.4 |
| 20260904045027 | 55 | 214 | 0.0 | 0.0 | 0.00 | 0.10 | 0.10 | 5 | 1009.5 |
| 20260904044538 | 55 | 214 | 0.0 | 0.0 | 0.00 | 0.10 | 0.10 | 5 | 1009.6 |
| 20260904044027 | 55 | 214 | 0.0 | 0.0 | 0.00 | 0.10 | 0.10 | 5 | 1009.5 |
| 20260904043525 | 55 | 214 | 0.0 | 0.0 | 0.00 | 0.10 | 0.10 | 5 | 1009.5 |
| 20260904043021 | 55 | 209 | 0.0 | 0.0 | 0.00 | 0.10 | 0.10 | 5 | 1009.5 |
| 20260904042520 | 55 | 213 | 0.0 | 0.0 | 0.00 | 0.10 | 0.10 | 6 | 1009.5 |
| 20260904042024 | 55 | 212 | 0.0 | 0.0 | 0.00 | 0.10 | 0.10 | 8 | 1009.4 |
| 20260904041531 | 55 | 211 | 0.0 | 0.0 | 0.00 | 0.10 | 0.10 | 9 | 1009.5 |
| 20260904041015 | 56 | 211 | 0.0 | 0.0 | 0.00 | 0.10 | 0.10 | 9 | 1009.5 |
| 20260904040513 | 56 | 211 | 0.0 | 0.0 | 0.00 | 0.10 | 0.10 | 10 | 1009.6 |
| 20260904040015 | 56 | 211 | 0.0 | 0.0 | 0.00 | 0.11 | 0.10 | 10 | 1009.5 |
| 20260904035511 | 56 | 214 | 0.0 | 0.0 | 0.00 | 0.11 | 0.10 | 9 | 1009.5 |
| 20260904035009 | 56 | 173 | 0.0 | 0.0 | 0.00 | 0.11 | 0.10 | 9 | 1009.6 |
| 20260904034508 | 56 | 189 | 0.0 | 0.0 | 0.00 | 0.11 | 0.10 | 9 | 1009.6 |
| 20260904034007 | 56 | 184 | 0.0 | 0.0 | 0.00 | 0.11 | 0.10 | 10 | 1009.4 |
| 20260904033507 | 56 | 184 | 0.0 | 0.0 | 0.00 | 0.11 | 0.10 | 10 | 1009.3 |
| 20260904033003 | 57 | 182 | 0.0 | 0.0 | 0.00 | 0.11 | 0.10 | 10 | 1009.3 |
| 20260904032503 | 57 | 182 | 0.0 | 0.0 | 0.00 | 0.11 | 0.10 | 10 | 1009.2 |
| 20260904032004 | 57 | 219 | 0.0 | 0.0 | 0.00 | 0.11 | 0.10 | 9 | 1009.3 |
| 20260904031600 | 57 | 219 | 0.0 | 0.0 | 0.00 | 0.11 | 0.10 | 9 | 1009.2 |
| 20260904031059 | 57 | 242 | 0.0 | 0.0 | 0.00 | 0.11 | 0.10 | 9 | 1009.2 |
| 20260904030558 | 58 | 242 | 0.0 | 0.0 | 0.00 | 0.11 | 0.10 | 9 | 1009.2 |
| 20260904030056 | 58 | 252 | 0.0 | 0.0 | 0.00 | 0.11 | 0.10 | 10 | 1009.1 |
| 20260904025555 | 58 | 252 | 0.0 | 0.0 | 0.00 | 0.17 | 0.10 | 13 | 1009.1 |
| 20260904025054 | 58 | 252 | 0.0 | 0.0 | 0.00 | 0.17 | 0.10 | 12 | 1009.0 |
| 20260904024552 | 58 | 263 | 0.0 | 0.0 | 0.00 | 0.17 | 0.10 | 12 | 1009.2 |
| 20260904024052 | 59 | 263 | 0.0 | 0.0 | 0.00 | 0.17 | 0.10 | 13 | 1009.1 |
| 20260904023549 | 59 | 263 | 0.0 | 0.0 | 0.00 | 0.17 | 0.10 | 15 | 1009.1 |
| 20260904023048 | 59 | 263 | 0.0 | 0.0 | 0.00 | 0.17 | 0.10 | 15 | 1009.0 |
| 20260904022547 | 59 | 263 | 0.0 | 0.0 | 0.00 | 0.17 | 0.10 | 17 | 1009.0 |
| 20260904022045 | 59 | 263 | 0.0 | 0.0 | 0.00 | 0.17 | 0.10 | 21 | 1008.9 |
| 20260904021544 | 59 | 263 | 0.0 | 0.0 | 0.00 | 0.17 | 0.10 | 27 | 1008.9 |
| 20260904021042 | 59 | 257 | 0.0 | 0.0 | 0.00 | 0.17 | 0.10 | 23 | 1008.9 |
| 20260904020540 | 60 | 257 | 0.0 | 0.0 | 0.00 | 0.17 | 0.10 | 22 | 1009.0 |
| 20260904020046 | 60 | 261 | 0.0 | 0.0 | 0.00 | 0.17 | 0.10 | 25 | 1009.0 |
| 20260904015537 | 60 | 272 | 0.0 | 0.0 | 0.00 | 0.18 | 0.10 | 29 | 1008.9 |
| 20260904015036 | 60 | 257 | 0.0 | 0.0 | 0.00 | 0.18 | 0.10 | 25 | 1009.0 |
| 20260904014538 | 60 | 281 | 0.0 | 0.0 | 0.00 | 0.18 | 0.10 | 21 | 1008.7 |
| 20260904014034 | 61 | 283 | 0.0 | 0.0 | 0.01 | 0.18 | 0.10 | 10 | 1008.8 |
| 20260904013532 | 61 | 219 | 0.0 | 0.0 | 0.02 | 0.18 | 0.10 | 2 | 1008.7 |
| 20260904013030 | 60 | 219 | 0.0 | 0.0 | 0.03 | 0.18 | 0.10 | 1 | 1008.7 |
| 20260904012531 | 60 | 219 | 0.0 | 0.0 | 0.04 | 0.18 | 0.10 | 1 | 1008.6 |
| 20260904012027 | 60 | 219 | 0.0 | 0.0 | 0.05 | 0.18 | 0.10 | 1 | 1008.4 |
| 20260904011528 | 60 | 219 | 0.0 | 0.0 | 0.06 | 0.18 | 0.10 | 1 | 1008.5 |
| 20260904011024 | 59 | 219 | 0.0 | 0.0 | 0.07 | 0.18 | 0.10 | 1 | 1008.6 |
| 20260904010522 | 59 | 219 | 0.0 | 0.0 | 0.08 | 0.18 | 0.10 | 1 | 1008.5 |
| 20260904010021 | 59 | 219 | 0.0 | 0.0 | 0.09 | 0.18 | 0.10 | 1 | 1008.6 |
| 20260904005520 | 59 | 219 | 0.0 | 0.0 | 0.09 | 0.19 | 0.10 | 1 | 1008.5 |
| 20260904005018 | 59 | 219 | 0.0 | 0.0 | 0.10 | 0.19 | 0.10 | 5 | 1008.5 |
| 20260904004517 | 59 | 219 | 0.0 | 0.0 | 0.09 | 0.18 | 0.09 | 6 | 1008.6 |
| 20260904004017 | 59 | 219 | 0.0 | 0.0 | 0.09 | 0.18 | 0.09 | 14 | 1008.5 |
| 20260904003513 | 58 | 219 | 0.0 | 0.0 | 0.07 | 0.16 | 0.07 | 24 | 1008.6 |
| 20260904003013 | 59 | 219 | 0.0 | 0.0 | 0.06 | 0.15 | 0.06 | 29 | 1008.5 |
| 20260904002511 | 59 | 228 | 0.0 | 0.0 | 0.05 | 0.14 | 0.05 | 35 | 1008.7 |
| 20260904002010 | 59 | 214 | 0.0 | 0.0 | 0.05 | 0.14 | 0.05 | 39 | 1008.7 |
| 20260904001508 | 59 | 214 | 0.0 | 0.0 | 0.04 | 0.13 | 0.04 | 42 | 1008.7 |
| 20260904001007 | 59 | 227 | 0.0 | 0.0 | 0.03 | 0.12 | 0.03 | 50 | 1008.7 |
| 20260904000505 | 59 | 209 | 0.0 | 0.0 | 0.02 | 0.11 | 0.02 | 54 | 1008.8 |
| 20260904000005 | 60 | 244 | 0.0 | 0.0 | 0.01 | 0.11 | 0.01 | 58 | 1008.9 |
| 20260903235502 | 60 | 231 | 0.0 | 0.0 | 0.01 | 0.11 | 0.01 | 62 | 1008.9 |
| 20260903235000 | 60 | 221 | 0.0 | 0.0 | 0.00 | 0.10 | 0.00 | 65 | 1008.7 |
| 20260903234600 | 60 | 228 | 0.0 | 0.0 | 0.00 | 0.10 | 0.00 | 66 | 1008.8 |
| 20260903234100 | 60 | 262 | 0.0 | 0.0 | 0.00 | 0.10 | 0.00 | 66 | 1008.7 |
| 20260903233600 | 60 | 261 | 0.0 | 0.0 | 0.00 | 0.10 | 0.00 | 66 | 1008.7 |
| 20260903233100 | 60 | 214 | 0.0 | 0.0 | 0.00 | 0.10 | 0.00 | 66 | 1008.7 |
| 20260903232559 | 60 | 297 | 0.0 | 0.0 | 0.00 | 0.10 | 0.00 | 66 | 1008.6 |
| 20260903232058 | 61 | 290 | 0.0 | 0.0 | 0.00 | 0.10 | 0.00 | 66 | 1008.6 |
| 20260903231610 | 61 | 309 | 0.0 | 0.0 | 0.00 | 0.10 | 0.00 | 66 | 1008.7 |
| 20260903231055 | 61 | 279 | 0.0 | 0.0 | 0.00 | 0.10 | 0.00 | 65 | 1008.6 |
| 20260903230557 | 61 | 346 | 0.0 | 0.0 | 0.00 | 0.10 | 0.00 | 65 | 1008.5 |
| 20260903230052 | 62 | 308 | 0.0 | 0.0 | 0.00 | 0.10 | 0.00 | 65 | 1008.6 |
| 20260903225551 | 62 | 273 | 0.0 | 0.0 | 0.00 | 0.11 | 0.00 | 64 | 1008.5 |
| 20260903225050 | 63 | 279 | 0.0 | 0.0 | 0.00 | 0.11 | 0.00 | 64 | 1008.5 |
| 20260903224548 | 63 | 286 | 0.0 | 0.0 | 0.00 | 0.11 | 0.00 | 65 | 1008.6 |
| 20260903224047 | 63 | 229 | 0.0 | 0.0 | 0.00 | 0.11 | 0.00 | 64 | 1008.5 |
| 20260903223544 | 62 | 268 | 0.0 | 0.0 | 0.00 | 0.11 | 0.00 | 64 | 1008.6 |
| 20260903223046 | 62 | 271 | 0.0 | 0.0 | 0.00 | 0.11 | 0.00 | 64 | 1008.5 |
| 20260903222541 | 63 | 291 | 0.0 | 0.0 | 0.00 | 0.11 | 0.00 | 63 | 1008.7 |
| 20260903222040 | 64 | 334 | 0.0 | 0.0 | 0.00 | 0.11 | 0.00 | 63 | 1008.7 |
| 20260903221540 | 64 | 256 | 0.0 | 0.0 | 0.00 | 0.11 | 0.00 | 62 | 1008.7 |
| 20260903221037 | 65 | 300 | 0.0 | 0.0 | 0.00 | 0.11 | 0.00 | 60 | 1008.6 |
| 20260903220537 | 67 | 258 | 0.0 | 0.0 | 0.00 | 0.11 | 0.00 | 57 | 1008.5 |
| 20260903220056 | 68 | 300 | 0.0 | 0.0 | 0.00 | 0.11 | 0.00 | 54 | 1008.6 |
| 20260903215535 | 69 | 265 | 0.0 | 0.0 | 0.00 | 0.14 | 0.00 | 49 | 1008.4 |
| 20260903215032 | 70 | 315 | 0.0 | 0.0 | 0.00 | 0.14 | 0.00 | 46 | 1008.5 |
| 20260903214529 | 70 | 275 | 0.0 | 0.0 | 0.00 | 0.14 | 0.00 | 45 | 1008.4 |
| 20260903214028 | 70 | 273 | 0.0 | 0.0 | 0.00 | 0.14 | 0.00 | 48 | 1008.3 |
| 20260903213527 | 69 | 268 | 0.0 | 0.0 | 0.00 | 0.14 | 0.00 | 46 | 1008.4 |
| 20260903213028 | 69 | 321 | 0.0 | 0.0 | 0.00 | 0.14 | 0.00 | 46 | 1008.3 |
| 20260903212524 | 69 | 319 | 0.0 | 0.0 | 0.00 | 0.14 | 0.00 | 47 | 1008.4 |
| 20260903212026 | 69 | 355 | 0.0 | 0.0 | 0.00 | 0.14 | 0.00 | 48 | 1008.4 |
| 20260903211522 | 69 | 290 | 0.0 | 0.0 | 0.00 | 0.14 | 0.00 | 48 | 1008.4 |
| 20260903211020 | 69 | 324 | 0.0 | 0.0 | 0.00 | 0.14 | 0.00 | 48 | 1008.4 |
| 20260903210521 | 69 | 13 | 0.0 | 0.0 | 0.00 | 0.14 | 0.00 | 48 | 1008.5 |
| 20260903210017 | 68 | 11 | 0.0 | 0.0 | 0.00 | 0.17 | 0.00 | 51 | 1008.7 |
| 20260903205517 | 68 | 61 | 0.0 | 0.0 | 0.00 | 0.17 | 0.00 | 53 | 1008.8 |
| 20260903205014 | 68 | 355 | 0.0 | 0.0 | 0.00 | 0.17 | 0.00 | 53 | 1008.8 |
| 20260903204512 | 67 | 342 | 0.0 | 0.0 | 0.00 | 0.17 | 0.00 | 57 | 1008.7 |
| 20260903204011 | 66 | 310 | 0.0 | 0.0 | 0.00 | 0.17 | 0.00 | 55 | 1008.8 |
| 20260903203512 | 66 | 347 | 0.0 | 0.0 | 0.00 | 0.17 | 0.00 | 55 | 1008.8 |
| 20260903203015 | 66 | 355 | 0.0 | 0.0 | 0.00 | 0.17 | 0.00 | 58 | 1008.8 |
| 20260903202507 | 66 | 355 | 0.0 | 0.0 | 0.00 | 0.17 | 0.00 | 56 | 1008.9 |
| 20260903202006 | 65 | 355 | 0.0 | 0.0 | 0.00 | 0.17 | 0.00 | 59 | 1008.9 |
| 20260903201503 | 65 | 355 | 0.0 | 0.0 | 0.00 | 0.17 | 0.00 | 60 | 1009.0 |
| 20260903201002 | 65 | 355 | 0.0 | 0.0 | 0.00 | 0.17 | 0.00 | 61 | 1009.0 |
| 20260903200501 | 64 | 294 | 0.0 | 0.0 | 0.00 | 0.17 | 0.00 | 61 | 1009.0 |
| 20260903200108 | 64 | 294 | 0.0 | 0.0 | 0.00 | 0.17 | 0.00 | 61 | 1009.2 |
| 20260903195558 | 64 | 292 | 0.0 | 0.0 | 0.00 | 0.21 | 0.00 | 62 | 1009.2 |
| 20260903195059 | 63 | 292 | 0.0 | 0.0 | 0.00 | 0.21 | 0.00 | 65 | 1009.4 |
| 20260903194556 | 63 | 292 | 0.0 | 0.0 | 0.00 | 0.21 | 0.00 | 67 | 1009.6 |
| 20260903194053 | 62 | 345 | 0.0 | 0.0 | 0.00 | 0.21 | 0.00 | 66 | 1009.5 |
| 20260903193552 | 62 | 319 | 0.0 | 0.0 | 0.00 | 0.21 | 0.00 | 64 | 1009.6 |
| 20260903193055 | 61 | 319 | 0.0 | 0.0 | 0.00 | 0.21 | 0.00 | 62 | 1009.7 |
| 20260903192550 | 61 | 314 | 0.0 | 0.0 | 0.00 | 0.21 | 0.00 | 61 | 1009.7 |
| 20260903192048 | 61 | 312 | 0.0 | 0.0 | 0.00 | 0.21 | 0.00 | 53 | 1009.8 |
| 20260903191558 | 61 | 316 | 0.0 | 0.0 | 0.00 | 0.21 | 0.00 | 57 | 1009.9 |
| 20260903191045 | 60 | 331 | 0.0 | 0.0 | 0.00 | 0.21 | 0.00 | 61 | 1009.9 |
| 20260903190544 | 60 | 331 | 0.0 | 0.0 | 0.00 | 0.21 | 0.00 | 61 | 1009.9 |
| 20260903190041 | 61 | 331 | 0.0 | 0.0 | 0.00 | 0.21 | 0.00 | 55 | 1010.0 |
| 20260903185539 | 60 | 331 | 0.0 | 0.0 | 0.00 | 0.21 | 0.00 | 56 | 1010.1 |
| 20260903185039 | 60 | 331 | 0.0 | 0.0 | 0.00 | 0.21 | 0.00 | 54 | 1010.1 |
| 20260903184540 | 60 | 331 | 0.0 | 0.0 | 0.00 | 0.21 | 0.00 | 44 | 1010.1 |
| 20260903184036 | 59 | 330 | 0.0 | 0.0 | 0.00 | 0.21 | 0.00 | 41 | 1010.1 |
| 20260903183538 | 59 | 330 | 0.0 | 0.0 | 0.00 | 0.21 | 0.00 | 22 | 1010.0 |
| 20260903183049 | 59 | 331 | 0.0 | 0.0 | 0.00 | 0.21 | 0.00 | 29 | 1010.1 |
| 20260903182531 | 58 | 247 | 0.0 | 0.0 | 0.00 | 0.21 | 0.00 | 13 | 1010.2 |
| 20260903182031 | 58 | 246 | 0.0 | 0.0 | 0.00 | 0.21 | 0.00 | 1 | 1010.0 |
| 20260903181529 | 57 | 224 | 0.0 | 0.0 | 0.00 | 0.21 | 0.00 | 1 | 1010.2 |
| 20260903181030 | 55 | 224 | 0.0 | 0.0 | 0.00 | 0.21 | 0.00 | 1 | 1010.1 |
| 20260903180526 | 55 | 224 | 0.0 | 0.0 | 0.00 | 0.21 | 0.00 | 1 | 1010.1 |
| 20260903180034 | 54 | 224 | 0.0 | 0.0 | 0.00 | 0.21 | 0.00 | 1 | 1010.2 |
| 20260903175522 | 54 | 224 | 0.0 | 0.0 | 0.00 | 0.21 | 0.00 | 1 | 1010.2 |
| 20260903175021 | 54 | 224 | 0.0 | 0.0 | 0.00 | 0.21 | 0.00 | 1 | 1010.2 |
| 20260903174524 | 53 | 224 | 0.0 | 0.0 | 0.00 | 0.21 | 0.00 | 1 | 1010.2 |
| 20260903174019 | 53 | 224 | 0.0 | 0.0 | 0.00 | 0.21 | 0.00 | 1 | 1010.3 |
| 20260903173516 | 53 | 224 | 0.0 | 0.0 | 0.00 | 0.21 | 0.00 | 1 | 1010.3 |
| 20260903173015 | 53 | 224 | 0.0 | 0.0 | 0.00 | 0.21 | 0.00 | 1 | 1010.3 |
| 20260903172515 | 53 | 224 | 0.0 | 0.0 | 0.00 | 0.21 | 0.00 | 1 | 1010.3 |
| 20260903172012 | 53 | 224 | 0.0 | 0.0 | 0.00 | 0.21 | 0.00 | 1 | 1010.3 |
| 20260903171518 | 52 | 221 | 0.0 | 0.0 | 0.00 | 0.21 | 0.00 | 1 | 1010.3 |
| 20260903171009 | 52 | 221 | 0.0 | 0.0 | 0.00 | 0.21 | 0.00 | 1 | 1010.3 |
| 20260903170513 | 52 | 221 | 0.0 | 0.0 | 0.00 | 0.21 | 0.00 | 1 | 1010.3 |
| 20260903170013 | 52 | 221 | 0.0 | 0.0 | 0.00 | 0.21 | 0.00 | 1 | 1010.4 |
| 20260903165504 | 52 | 221 | 0.0 | 0.0 | 0.00 | 0.21 | 0.00 | 1 | 1010.3 |
| 20260903165003 | 52 | 221 | 0.0 | 0.0 | 0.00 | 0.21 | 0.00 | 1 | 1010.3 |
| 20260903164502 | 52 | 221 | 0.0 | 0.0 | 0.00 | 0.21 | 0.00 | 1 | 1010.3 |
| 20260903164004 | 52 | 221 | 0.0 | 0.0 | 0.00 | 0.21 | 0.00 | 1 | 1010.3 |
| 20260903163600 | 52 | 221 | 0.0 | 0.0 | 0.00 | 0.21 | 0.00 | 1 | 1010.3 |
| 20260903163058 | 52 | 221 | 0.0 | 0.0 | 0.00 | 0.21 | 0.00 | 1 | 1010.3 |
| 20260903162556 | 52 | 220 | 0.0 | 0.0 | 0.00 | 0.21 | 0.00 | 1 | 1010.3 |
| 20260903162055 | 52 | 200 | 0.0 | 0.0 | 0.00 | 0.21 | 0.00 | 1 | 1010.3 |
| 20260903161612 | 52 | 360 | 0.0 | 0.0 | 0.00 | 0.21 | 0.00 | 1 | 1010.3 |
| 20260903161055 | 51 | 360 | 0.0 | 0.0 | 0.00 | 0.21 | 0.00 | 1 | 1010.1 |
| 20260903160551 | 51 | 360 | 0.0 | 0.0 | 0.00 | 0.21 | 0.00 | 1 | 1010.2 |
| 20260903160050 | 51 | 360 | 0.0 | 0.0 | 0.00 | 0.21 | 0.00 | 1 | 1010.3 |
| 20260903155548 | 51 | 360 | 0.0 | 0.0 | 0.00 | 0.21 | 0.00 | 1 | 1010.3 |
| 20260903155046 | 51 | 360 | 0.0 | 0.0 | 0.00 | 0.21 | 0.00 | 1 | 1010.3 |
| 20260903154545 | 51 | 360 | 0.0 | 0.0 | 0.00 | 0.21 | 0.00 | 1 | 1010.2 |
| 20260903154044 | 51 | 360 | 0.0 | 0.0 | 0.00 | 0.21 | 0.00 | 1 | 1010.3 |
| 20260903153542 | 51 | 360 | 0.0 | 0.0 | 0.00 | 0.21 | 0.00 | 1 | 1010.4 |
| 20260903153040 | 51 | 360 | 0.0 | 0.0 | 0.00 | 0.21 | 0.00 | 1 | 1010.5 |
| 20260903152539 | 51 | 360 | 0.0 | 0.0 | 0.00 | 0.21 | 0.00 | 1 | 1010.5 |
| 20260903152037 | 51 | 360 | 0.0 | 0.0 | 0.00 | 0.21 | 0.00 | 1 | 1010.3 |
| 20260903151541 | 51 | 360 | 0.0 | 0.0 | 0.00 | 0.21 | 0.00 | 1 | 1010.4 |
| 20260903151035 | 51 | 360 | 0.0 | 0.0 | 0.00 | 0.21 | 0.00 | 1 | 1010.3 |
| 20260903150534 | 50 | 360 | 0.0 | 0.0 | 0.00 | 0.21 | 0.00 | 1 | 1010.2 |
| 20260903150031 | 50 | 360 | 0.0 | 0.0 | 0.00 | 0.21 | 0.00 | 1 | 1010.3 |
| 20260903145530 | 50 | 360 | 0.0 | 0.0 | 0.00 | 0.21 | 0.00 | 1 | 1010.3 |
| 20260903145029 | 50 | 360 | 0.0 | 0.0 | 0.00 | 0.21 | 0.00 | 1 | 1010.2 |
| 20260903144528 | 50 | 360 | 0.0 | 0.0 | 0.00 | 0.21 | 0.00 | 1 | 1010.1 |
| 20260903144027 | 50 | 360 | 0.0 | 0.0 | 0.00 | 0.21 | 0.00 | 1 | 1010.1 |
| 20260903143524 | 50 | 360 | 0.0 | 0.0 | 0.00 | 0.21 | 0.00 | 1 | 1010.1 |
| 20260903143034 | 50 | 360 | 0.0 | 0.0 | 0.00 | 0.21 | 0.00 | 1 | 1010.3 |
| 20260903142522 | 50 | 360 | 0.0 | 0.0 | 0.00 | 0.21 | 0.00 | 1 | 1010.2 |
| 20260903142024 | 50 | 360 | 0.0 | 0.0 | 0.00 | 0.21 | 0.00 | 1 | 1010.2 |
| 20260903141519 | 50 | 360 | 0.0 | 0.0 | 0.00 | 0.21 | 0.00 | 1 | 1010.1 |
| 20260903141017 | 50 | 360 | 0.0 | 0.0 | 0.00 | 0.21 | 0.00 | 1 | 1010.1 |
| 20260903140516 | 50 | 360 | 0.0 | 0.0 | 0.00 | 0.21 | 0.00 | 1 | 1010.0 |
| 20260903140017 | 50 | 360 | 0.0 | 0.0 | 0.00 | 0.21 | 0.00 | 1 | 1010.0 |
| 20260903135512 | 50 | 360 | 0.0 | 0.0 | 0.00 | 0.21 | 0.00 | 1 | 1009.9 |
| 20260903135011 | 49 | 360 | 0.0 | 0.0 | 0.00 | 0.21 | 0.00 | 1 | 1009.9 |
| 20260903134510 | 49 | 360 | 0.0 | 0.0 | 0.00 | 0.21 | 0.00 | 1 | 1010.0 |
| 20260903134008 | 49 | 360 | 0.0 | 0.0 | 0.00 | 0.21 | 0.00 | 1 | 1009.8 |
| 20260903133507 | 49 | 360 | 0.0 | 0.0 | 0.00 | 0.21 | 0.00 | 1 | 1009.8 |
| 20260903133006 | 49 | 360 | 0.0 | 0.0 | 0.00 | 0.21 | 0.00 | 1 | 1009.8 |
| 20260903132504 | 49 | 360 | 0.0 | 0.0 | 0.00 | 0.21 | 0.00 | 1 | 1009.7 |
| 20260903132003 | 50 | 360 | 0.0 | 0.0 | 0.00 | 0.21 | 0.00 | 1 | 1009.7 |
| 20260903131503 | 50 | 360 | 0.0 | 0.0 | 0.00 | 0.21 | 0.00 | 1 | 1009.7 |
| 20260903131102 | 49 | 360 | 0.0 | 0.0 | 0.00 | 0.21 | 0.00 | 1 | 1009.7 |
| 20260903130559 | 49 | 360 | 0.0 | 0.0 | 0.00 | 0.21 | 0.00 | 1 | 1009.5 |
| 20260903125556 | 49 | 360 | 0.0 | 0.0 | 0.00 | 0.21 | 0.00 | 1 | 1009.6 |
| 20260903125054 | 49 | 360 | 0.0 | 0.0 | 0.00 | 0.21 | 0.00 | 1 | 1009.6 |
| 20260903124600 | 49 | 360 | 0.0 | 0.0 | 0.00 | 0.21 | 0.00 | 1 | 1009.6 |
| 20260903124050 | 49 | 360 | 0.0 | 0.0 | 0.00 | 0.21 | 0.00 | 1 | 1009.8 |
| 20260903123549 | 49 | 360 | 0.0 | 0.0 | 0.00 | 0.21 | 0.00 | 1 | 1009.7 |
| 20260903123048 | 49 | 360 | 0.0 | 0.0 | 0.00 | 0.21 | 0.00 | 1 | 1009.6 |
| 20260903122547 | 49 | 360 | 0.0 | 0.0 | 0.00 | 0.21 | 0.00 | 1 | 1009.8 |
| 20260903122046 | 49 | 360 | 0.0 | 0.0 | 0.00 | 0.21 | 0.00 | 1 | 1009.7 |
| 20260903121549 | 50 | 360 | 0.0 | 0.0 | 0.00 | 0.21 | 0.00 | 1 | 1009.6 |
| 20260903121042 | 50 | 360 | 0.0 | 0.0 | 0.00 | 0.21 | 0.00 | 1 | 1009.6 |
| 20260903120543 | 50 | 360 | 0.0 | 0.0 | 0.00 | 0.21 | 0.00 | 1 | 1009.7 |
| 20260903120039 | 50 | 360 | 0.0 | 0.0 | 0.00 | 0.21 | 0.00 | 1 | 1009.7 |
| 20260903115537 | 50 | 360 | 0.0 | 0.0 | 0.00 | 0.21 | 0.00 | 1 | 1009.7 |
| 20260903115036 | 50 | 360 | 0.0 | 0.0 | 0.00 | 0.21 | 0.00 | 1 | 1009.7 |
| 20260903114535 | 50 | 360 | 0.0 | 0.0 | 0.00 | 0.21 | 0.00 | 1 | 1009.7 |
| 20260903114035 | 50 | 360 | 0.0 | 0.0 | 0.00 | 0.21 | 0.00 | 1 | 1009.5 |
| 20260903113532 | 50 | 360 | 0.0 | 0.0 | 0.00 | 0.21 | 0.00 | 1 | 1009.5 |
| 20260903113032 | 50 | 360 | 0.0 | 0.0 | 0.00 | 0.21 | 0.00 | 1 | 1009.5 |
| 20260903112529 | 50 | 360 | 0.0 | 0.0 | 0.00 | 0.21 | 0.00 | 1 | 1009.5 |
| 20260903112027 | 50 | 360 | 0.0 | 0.0 | 0.00 | 0.21 | 0.00 | 1 | 1009.6 |
| 20260903111526 | 51 | 360 | 0.0 | 0.0 | 0.00 | 0.21 | 0.00 | 1 | 1009.6 |
| 20260903111025 | 51 | 360 | 0.0 | 0.0 | 0.00 | 0.21 | 0.00 | 1 | 1009.5 |
| 20260903110523 | 51 | 360 | 0.0 | 0.0 | 0.00 | 0.21 | 0.00 | 1 | 1009.2 |
| 20260903110022 | 51 | 360 | 0.0 | 0.0 | 0.00 | 0.21 | 0.00 | 1 | 1009.2 |
| 20260903105520 | 51 | 360 | 0.0 | 0.0 | 0.00 | 0.21 | 0.00 | 1 | 1009.2 |
| 20260903105020 | 51 | 360 | 0.0 | 0.0 | 0.00 | 0.21 | 0.00 | 1 | 1009.3 |
| 20260903104524 | 51 | 360 | 0.0 | 0.0 | 0.00 | 0.21 | 0.00 | 1 | 1009.1 |
| 20260903104017 | 51 | 360 | 0.0 | 0.0 | 0.00 | 0.21 | 0.00 | 1 | 1009.1 |
| 20260903103516 | 51 | 360 | 0.0 | 0.0 | 0.00 | 0.21 | 0.00 | 1 | 1009.1 |
| 20260903103013 | 51 | 360 | 0.0 | 0.0 | 0.00 | 0.21 | 0.00 | 1 | 1009.1 |
| 20260903102512 | 51 | 360 | 0.0 | 0.0 | 0.00 | 0.21 | 0.00 | 1 | 1009.0 |
| 20260903102012 | 51 | 360 | 0.0 | 0.0 | 0.00 | 0.21 | 0.00 | 1 | 1009.0 |
| 20260903101513 | 51 | 360 | 0.0 | 0.0 | 0.00 | 0.21 | 0.00 | 1 | 1009.1 |
| 20260903101007 | 51 | 360 | 0.0 | 0.0 | 0.00 | 0.21 | 0.00 | 1 | 1009.1 |
| 20260903100506 | 51 | 360 | 0.0 | 0.0 | 0.00 | 0.21 | 0.00 | 1 | 1009.0 |
| 20260903100016 | 51 | 360 | 0.0 | 0.0 | 0.00 | 0.21 | 0.00 | 1 | 1008.9 |
| 20260903095504 | 51 | 360 | 0.0 | 0.0 | 0.00 | 0.21 | 0.00 | 1 | 1009.0 |
| 20260903095003 | 51 | 360 | 0.0 | 0.0 | 0.00 | 0.21 | 0.00 | 1 | 1009.0 |
| 20260903094610 | 51 | 360 | 0.0 | 0.0 | 0.00 | 0.21 | 0.00 | 1 | 1009.0 |
| 20260903094059 | 51 | 360 | 0.0 | 0.0 | 0.00 | 0.21 | 0.00 | 1 | 1008.9 |
| 20260903093559 | 51 | 360 | 0.0 | 0.0 | 0.00 | 0.21 | 0.00 | 1 | 1009.0 |
| 20260903093056 | 51 | 360 | 0.0 | 0.0 | 0.00 | 0.21 | 0.00 | 1 | 1009.0 |
| 20260903092555 | 51 | 360 | 0.0 | 0.0 | 0.00 | 0.21 | 0.00 | 1 | 1009.0 |
| 20260903092054 | 51 | 360 | 0.0 | 0.0 | 0.00 | 0.21 | 0.00 | 1 | 1008.9 |
| 20260903091557 | 51 | 360 | 0.0 | 0.0 | 0.00 | 0.21 | 0.00 | 1 | 1009.0 |
| 20260903091053 | 51 | 360 | 0.0 | 0.0 | 0.00 | 0.21 | 0.00 | 1 | 1008.9 |
| 20260903090549 | 51 | 360 | 0.0 | 0.0 | 0.00 | 0.21 | 0.00 | 1 | 1008.9 |
| 20260903090047 | 51 | 360 | 0.0 | 0.0 | 0.00 | 0.21 | 0.00 | 1 | 1008.9 |
| 20260903085545 | 51 | 360 | 0.0 | 0.0 | 0.00 | 0.21 | 0.00 | 1 | 1008.9 |
| 20260903085048 | 51 | 360 | 0.0 | 0.0 | 0.00 | 0.21 | 0.00 | 1 | 1008.9 |
| 20260903084543 | 51 | 360 | 0.0 | 0.0 | 0.00 | 0.21 | 0.00 | 1 | 1008.9 |
| 20260903084042 | 51 | 360 | 0.0 | 0.0 | 0.00 | 0.21 | 0.00 | 1 | 1008.8 |
| 20260903083540 | 50 | 360 | 0.0 | 0.0 | 0.00 | 0.21 | 0.00 | 1 | 1008.7 |
| 20260903083038 | 50 | 360 | 0.0 | 0.0 | 0.00 | 0.21 | 0.00 | 1 | 1008.7 |
| 20260903082539 | 50 | 360 | 0.0 | 0.0 | 0.00 | 0.21 | 0.00 | 1 | 1008.7 |
| 20260903082036 | 50 | 360 | 0.0 | 0.0 | 0.00 | 0.21 | 0.00 | 1 | 1008.6 |
| 20260903081534 | 50 | 360 | 0.0 | 0.0 | 0.00 | 0.21 | 0.00 | 1 | 1008.8 |
| 20260903081036 | 50 | 360 | 0.0 | 0.0 | 0.00 | 0.21 | 0.00 | 1 | 1008.8 |
| 20260903080533 | 50 | 360 | 0.0 | 0.0 | 0.00 | 0.21 | 0.00 | 1 | 1008.6 |
| 20260903080030 | 50 | 360 | 0.0 | 0.0 | 0.00 | 0.21 | 0.00 | 1 | 1008.7 |
| 20260903075529 | 50 | 360 | 0.0 | 0.0 | 0.00 | 0.21 | 0.00 | 1 | 1008.6 |
| 20260903075030 | 50 | 360 | 0.0 | 0.0 | 0.00 | 0.21 | 0.00 | 1 | 1008.5 |
| 20260903074525 | 51 | 360 | 0.0 | 0.0 | 0.00 | 0.21 | 0.00 | 1 | 1008.5 |
| 20260903074024 | 51 | 360 | 0.0 | 0.0 | 0.00 | 0.21 | 0.00 | 1 | 1008.5 |
| 20260903073522 | 51 | 360 | 0.0 | 0.0 | 0.00 | 0.21 | 0.00 | 1 | 1008.4 |
| 20260903073047 | 51 | 360 | 0.0 | 0.0 | 0.00 | 0.21 | 0.00 | 1 | 1008.2 |
| 20260903072509 | 52 | 360 | 0.0 | 0.0 | 0.00 | 0.21 | 0.00 | 1 | 1008.1 |
| 20260903072008 | 52 | 360 | 0.0 | 0.0 | 0.00 | 0.21 | 0.00 | 1 | 1008.1 |
| 20260903071507 | 52 | 360 | 0.0 | 0.0 | 0.00 | 0.21 | 0.00 | 1 | 1008.1 |
| 20260903071004 | 52 | 360 | 0.0 | 0.0 | 0.00 | 0.21 | 0.00 | 1 | 1008.1 |
| 20260903070503 | 52 | 360 | 0.0 | 0.0 | 0.00 | 0.21 | 0.00 | 1 | 1008.0 |
| 20260903070003 | 52 | 360 | 0.0 | 0.0 | 0.00 | 0.21 | 0.21 | 1 | 1008.1 |
| 20260903065600 | 52 | 360 | 0.0 | 0.0 | 0.00 | 0.21 | 0.21 | 1 | 1008.0 |
| 20260903065059 | 52 | 360 | 0.0 | 0.0 | 0.00 | 0.21 | 0.21 | 1 | 1008.0 |
| 20260903064601 | 53 | 360 | 0.0 | 0.0 | 0.00 | 0.21 | 0.21 | 1 | 1008.0 |
| 20260903064056 | 53 | 360 | 0.0 | 0.0 | 0.00 | 0.21 | 0.21 | 1 | 1008.0 |
| 20260903063556 | 53 | 360 | 0.0 | 0.0 | 0.00 | 0.21 | 0.21 | 1 | 1008.0 |
| 20260903063113 | 53 | 360 | 0.0 | 0.0 | 0.00 | 0.21 | 0.21 | 1 | 1008.0 |
| 20260903062553 | 53 | 360 | 0.0 | 0.0 | 0.00 | 0.21 | 0.21 | 1 | 1007.9 |
| 20260903062049 | 53 | 182 | 0.0 | 0.0 | 0.00 | 0.21 | 0.21 | 1 | 1008.0 |
| 20260903061549 | 53 | 182 | 0.0 | 0.0 | 0.00 | 0.21 | 0.21 | 1 | 1008.0 |
| 20260903061051 | 53 | 182 | 0.0 | 0.0 | 0.00 | 0.21 | 0.21 | 1 | 1008.0 |
| 20260903060545 | 53 | 200 | 0.0 | 0.0 | 0.00 | 0.21 | 0.21 | 1 | 1008.1 |
| 20260903060044 | 54 | 231 | 0.0 | 0.0 | 0.00 | 0.21 | 0.21 | 1 | 1007.9 |
| 20260903055544 | 54 | 235 | 0.0 | 0.0 | 0.00 | 0.21 | 0.21 | 1 | 1008.0 |
| 20260903055044 | 54 | 235 | 0.0 | 0.0 | 0.00 | 0.21 | 0.21 | 1 | 1008.0 |
| 20260903054540 | 54 | 274 | 0.0 | 0.0 | 0.00 | 0.21 | 0.21 | 1 | 1007.7 |
| 20260903054038 | 54 | 234 | 0.0 | 0.0 | 0.00 | 0.21 | 0.21 | 1 | 1007.8 |
| 20260903053537 | 54 | 228 | 0.0 | 0.0 | 0.00 | 0.21 | 0.21 | 1 | 1007.9 |
| 20260903053036 | 54 | 228 | 0.0 | 0.0 | 0.00 | 0.21 | 0.21 | 1 | 1007.9 |
| 20260903052534 | 54 | 228 | 0.0 | 0.0 | 0.00 | 0.21 | 0.21 | 1 | 1007.8 |
| 20260903052033 | 54 | 226 | 0.0 | 0.0 | 0.00 | 0.21 | 0.21 | 1 | 1007.9 |
| 20260903051532 | 54 | 226 | 0.0 | 0.0 | 0.00 | 0.21 | 0.21 | 1 | 1008.0 |